| time (UTC) | temp F | wind direction | speed MPH | gust MPH | rain 1hr in | rain 24hr in | rain mn in | humidity % | barometer mb |
| 20260504221847 | 56 | 333 | 7.0 | 14.0 | 0.00 | 0.04 | 0.00 | 66 | 1005.1 |
| 20260504220355 | 57 | 315 | 8.0 | 16.0 | 0.00 | 0.07 | 0.00 | 64 | 1004.9 |
| 20260504214857 | 58 | 330 | 7.0 | 13.0 | 0.00 | 0.07 | 0.00 | 62 | 1004.7 |
| 20260504213336 | 58 | 323 | 6.0 | 16.0 | 0.00 | 0.07 | 0.00 | 61 | 1004.4 |
| 20260504211858 | 58 | 300 | 8.0 | 14.0 | 0.00 | 0.07 | 0.00 | 60 | 1004.2 |
| 20260504210343 | 57 | 275 | 6.0 | 17.0 | 0.00 | 0.10 | 0.00 | 61 | 1004.4 |
| 20260504204847 | 57 | 291 | 8.0 | 17.0 | 0.00 | 0.10 | 0.00 | 62 | 1004.2 |
| 20260504203349 | 57 | 291 | 9.0 | 20.0 | 0.00 | 0.10 | 0.00 | 61 | 1004.1 |
| 20260504201917 | 57 | 309 | 9.0 | 25.0 | 0.00 | 0.10 | 0.00 | 61 | 1004.3 |
| 20260504200336 | 58 | 294 | 12.0 | 23.0 | 0.00 | 0.12 | 0.00 | 60 | 1004.3 |
| 20260504194858 | 58 | 287 | 8.0 | 17.0 | 0.00 | 0.12 | 0.00 | 60 | 1004.2 |
| 20260504193336 | 57 | 265 | 14.0 | 24.0 | 0.00 | 0.12 | 0.00 | 60 | 1004.2 |
| 20260504191838 | 57 | 268 | 7.0 | 24.0 | 0.00 | 0.12 | 0.00 | 60 | 1004.3 |
| 20260504190358 | 55 | 306 | 7.0 | 15.0 | 0.00 | 0.19 | 0.00 | 65 | 1004.6 |
| 20260504184901 | 54 | 319 | 9.0 | 15.0 | 0.00 | 0.19 | 0.00 | 65 | 1004.7 |
| 20260504183344 | 55 | 311 | 7.0 | 19.0 | 0.00 | 0.19 | 0.00 | 61 | 1004.5 |
| 20260504181846 | 55 | 290 | 10.0 | 17.0 | 0.00 | 0.19 | 0.00 | 59 | 1004.5 |
| 20260504180348 | 56 | 235 | 6.0 | 13.0 | 0.00 | 0.33 | 0.00 | 52 | 1004.5 |
| 20260504174849 | 57 | 225 | 8.0 | 18.0 | 0.00 | 0.33 | 0.00 | 49 | 1003.7 |
| 20260504173354 | 58 | 268 | 9.0 | 14.0 | 0.00 | 0.33 | 0.00 | 47 | 1003.6 |
| 20260504171855 | 59 | 216 | 8.0 | 19.0 | 0.00 | 0.33 | 0.00 | 44 | 1003.6 |
| 20260504170354 | 59 | 211 | 8.0 | 24.0 | 0.00 | 0.40 | 0.00 | 45 | 1003.7 |
| 20260504160344 | 58 | 246 | 5.0 | 21.0 | 0.00 | 0.43 | 0.00 | 48 | 1004.4 |
| 20260504150355 | 55 | 304 | 10.0 | 16.0 | 0.00 | 0.46 | 0.00 | 52 | 1005.4 |
| 20260504140352 | 51 | 341 | 10.0 | 22.0 | 0.00 | 0.50 | 0.00 | 54 | 1005.8 |
| 20260504130343 | 48 | 304 | 10.0 | 17.0 | 0.00 | 0.56 | 0.00 | 58 | 1006.3 |
| 20260504110401 | 39 | 271 | 6.0 | 14.0 | 0.00 | 0.65 | 0.61 | 77 | 1005.8 |
| 20260504100350 | 37 | 294 | 5.0 | 10.0 | 0.00 | 0.67 | 0.61 | 77 | 1004.8 |
| 20260504081910 | 37 | 293 | 6.0 | 20.0 | 0.00 | 0.73 | 0.61 | 72 | 1003.4 |
| 20260504080349 | 37 | 303 | 9.0 | 15.0 | 0.00 | 0.78 | 0.61 | 70 | 1003.4 |
| 20260504070346 | 38 | 351 | 7.0 | 14.0 | 0.00 | 0.82 | 0.61 | 64 | 1002.9 |
| 20260504050342 | 43 | 302 | 8.0 | 17.0 | 0.00 | 0.82 | 0.61 | 15 | 1002.1 |
| 20260504044846 | 43 | 308 | 6.0 | 19.0 | 0.00 | 0.82 | 0.61 | 16 | 1002.0 |
| 20260504043413 | 43 | 309 | 8.0 | 18.0 | 0.00 | 0.82 | 0.61 | 11 | 1001.7 |
| 20260504041853 | 43 | 320 | 10.0 | 17.0 | 0.00 | 0.82 | 0.61 | 4 | 1001.5 |
| 20260504040336 | 43 | 339 | 8.0 | 19.0 | 0.00 | 0.83 | 0.61 | 1 | 1001.5 |
| 20260504034842 | 43 | 319 | 6.0 | 15.0 | 0.00 | 0.83 | 0.61 | 1 | 1001.4 |
| 20260504033345 | 42 | 329 | 9.0 | 14.0 | 0.00 | 0.83 | 0.61 | 1 | 1001.3 |
| 20260504031846 | 42 | 338 | 7.0 | 16.0 | 0.00 | 0.83 | 0.61 | 1 | 1001.1 |
| 20260504030334 | 42 | 298 | 10.0 | 16.0 | 0.00 | 0.83 | 0.61 | 1 | 1000.9 |
| 20260504024835 | 42 | 317 | 8.0 | 16.0 | 0.00 | 0.83 | 0.61 | 1 | 1000.7 |
| 20260504023338 | 42 | 320 | 12.0 | 18.0 | 0.00 | 0.83 | 0.61 | 1 | 1000.7 |
| 20260504021903 | 42 | 69 | 10.0 | 19.0 | 0.01 | 0.83 | 0.61 | 1 | 1000.6 |
| 20260504020344 | 42 | 343 | 8.0 | 20.0 | 0.01 | 0.83 | 0.61 | 1 | 1000.6 |
| 20260504014845 | 42 | 13 | 10.0 | 18.0 | 0.01 | 0.83 | 0.61 | 1 | 1000.6 |
| 20260504013348 | 42 | 337 | 10.0 | 20.0 | 0.01 | 0.83 | 0.61 | 1 | 1000.6 |
| 20260504011854 | 42 | 360 | 9.0 | 21.0 | 0.01 | 0.82 | 0.60 | 1 | 1000.4 |
| 20260504010348 | 42 | 311 | 9.0 | 17.0 | 0.01 | 0.82 | 0.60 | 1 | 1000.2 |
| 20260504004850 | 42 | 355 | 13.0 | 22.0 | 0.01 | 0.82 | 0.60 | 1 | 1000.0 |
| 20260504003336 | 42 | 355 | 10.0 | 18.0 | 0.01 | 0.82 | 0.60 | 1 | 999.9 |
| 20260504001839 | 42 | 22 | 11.0 | 22.0 | 0.00 | 0.81 | 0.59 | 1 | 999.8 |
| 20260504000341 | 41 | 346 | 11.0 | 18.0 | 0.01 | 0.81 | 0.59 | 1 | 999.5 |
| 20260503234847 | 41 | 340 | 9.0 | 19.0 | 0.01 | 0.81 | 0.59 | 1 | 999.3 |
| 20260503233348 | 41 | 27 | 12.0 | 21.0 | 0.01 | 0.81 | 0.59 | 1 | 999.1 |
| 20260503231911 | 41 | 328 | 9.0 | 19.0 | 0.02 | 0.81 | 0.59 | 1 | 999.1 |
| 20260503230334 | 41 | 19 | 13.0 | 21.0 | 0.02 | 0.80 | 0.58 | 1 | 999.1 |
| 20260503224839 | 41 | 19 | 11.0 | 21.0 | 0.03 | 0.80 | 0.58 | 1 | 999.0 |
| 20260503223341 | 42 | 355 | 11.0 | 20.0 | 0.04 | 0.80 | 0.58 | 1 | 998.9 |